DW6344 Weather Reports


time (UTC)temp
C
wind
direction
speed
KPH
gust
KPH
rain 1hr
cm
rain 24hr
cm
rain mn
cm
humidity
%
barometer
mb
20260505111847 16 123 1.6 6.4 0.00 0.00 0.00 66 1012.7
20260505111337 16 82 1.6 6.4 0.00 0.00 0.00 66 1012.7
20260505110846 16 87 0.0 6.4 0.00 0.00 0.00 67 1012.7
20260505110331 16 134 0.0 3.2 0.00 0.00 0.00 67 1012.7
20260505101840 15 96 1.6 3.2 0.00 0.00 0.00 67 1012.4
20260505101333 15 102 0.0 3.2 0.00 0.00 0.00 67 1012.3
20260505100849 15 103 0.0 4.8 0.00 0.00 0.00 67 1012.3
20260505100341 15 104 0.0 4.8 0.00 0.00 0.00 68 1012.2
20260505095833 15 105 0.0 3.2 0.00 0.00 0.00 68 1012.1
20260505095354 15 98 1.6 3.2 0.00 0.00 0.00 68 1012.0
20260505094841 15 133 0.0 3.2 0.00 0.00 0.00 68 1012.0
20260505094354 15 133 0.0 3.2 0.00 0.00 0.00 68 1012.1
20260505093858 15 88 0.0 3.2 0.00 0.00 0.00 67 1012.1
20260505093341 15 54 0.0 3.2 0.00 0.00 0.00 68 1012.1
20260505092841 15 54 0.0 3.2 0.00 0.00 0.00 68 1012.1
20260505092358 15 59 0.0 1.6 0.00 0.00 0.00 67 1012.0
20260505091842 16 59 0.0 3.2 0.00 0.00 0.00 67 1012.0
20260505091404 16 59 0.0 3.2 0.00 0.00 0.00 67 1012.0
20260505090837 16 340 0.0 3.2 0.00 0.00 0.00 66 1012.0
20260505090335 16 26 0.0 1.6 0.00 0.00 0.00 66 1011.9
20260505085840 16 25 0.0 1.6 0.00 0.00 0.00 66 1011.8
20260505085344 16 25 0.0 1.6 0.00 0.00 0.00 66 1011.9
20260505084846 16 25 0.0 1.6 0.00 0.00 0.00 66 1011.9
20260505084336 16 26 0.0 1.6 0.00 0.00 0.00 65 1011.8
20260505083917 16 24 0.0 4.8 0.00 0.00 0.00 65 1011.7
20260505083356 16 24 1.6 6.4 0.00 0.00 0.00 65 1011.7
20260505082835 16 336 0.0 6.4 0.00 0.00 0.00 65 1011.8
20260505082334 16 88 0.0 4.8 0.00 0.00 0.00 65 1011.8
20260505081838 16 88 0.0 4.8 0.00 0.00 0.00 65 1011.9
20260505081356 16 93 1.6 4.8 0.00 0.00 0.00 64 1011.9
20260505080842 16 89 0.0 3.2 0.00 0.00 0.00 64 1011.8
20260505080359 16 89 1.6 3.2 0.00 0.00 0.00 64 1011.8
20260505075839 16 89 1.6 3.2 0.00 0.00 0.00 64 1011.7
20260505075336 17 89 0.0 3.2 0.00 0.00 0.00 64 1011.7
20260505074914 17 89 1.6 4.8 0.00 0.00 0.00 64 1011.7
20260505074343 17 74 0.0 9.7 0.00 0.00 0.00 63 1011.6
20260505073849 17 84 1.6 9.7 0.00 0.00 0.00 63 1011.6
20260505073332 17 355 0.0 4.8 0.00 0.00 0.00 63 1011.4
20260505072846 17 65 1.6 4.8 0.00 0.00 0.00 62 1011.4
20260505072337 17 229 1.6 6.4 0.00 0.00 0.00 63 1011.4
20260505071836 17 143 1.6 6.4 0.00 0.00 0.00 63 1011.4
20260505071337 17 78 1.6 6.4 0.00 0.00 0.00 63 1011.3
20260505070847 17 78 1.6 6.4 0.00 0.00 0.00 63 1011.4
20260505070352 17 71 1.6 3.2 0.00 0.00 0.00 62 1011.4
20260505065842 17 71 0.0 3.2 0.00 0.00 0.00 62 1011.3
20260505065344 17 74 0.0 6.4 0.00 0.00 0.00 62 1011.4
20260505064830 17 75 0.0 6.4 0.00 0.00 0.00 62 1011.4
20260505064332 17 59 1.6 4.8 0.00 0.00 0.00 62 1011.4
20260505063858 17 78 1.6 4.8 0.00 0.00 0.00 61 1011.4
20260505063340 17 65 1.6 4.8 0.00 0.00 0.00 61 1011.4
20260505062854 17 234 1.6 4.8 0.00 0.00 0.00 61 1011.5
20260505062328 17 15 1.6 6.4 0.00 0.00 0.00 61 1011.5
20260505061845 17 331 1.6 6.4 0.00 0.00 0.00 61 1011.4
20260505061343 17 82 0.0 4.8 0.00 0.00 0.00 61 1011.5
20260505060838 18 77 0.0 9.7 0.00 0.00 0.00 61 1011.5
20260505060333 18 77 1.6 9.7 0.00 0.00 0.00 60 1011.5
20260505055834 18 360 0.0 8.0 0.00 0.00 0.00 61 1011.4
20260505055337 18 355 3.2 8.0 0.00 0.00 0.00 60 1011.4
20260505054910 18 41 1.6 9.7 0.00 0.00 0.00 61 1011.6
20260505054335 18 82 1.6 9.7 0.00 0.00 0.00 60 1011.6
20260505053858 18 87 1.6 8.0 0.00 0.00 0.00 61 1011.7
20260505053350 18 88 3.2 8.0 0.00 0.00 0.00 61 1011.6
20260505052844 18 123 0.0 4.8 0.00 0.00 0.00 60 1011.6
20260505052401 18 124 1.6 8.0 0.00 0.00 0.00 60 1011.5
20260505051839 18 307 1.6 8.0 0.00 0.00 0.00 60 1011.5
20260505051407 18 92 1.6 9.7 0.00 0.00 0.00 60 1011.7
20260505050845 18 271 1.6 6.4 0.00 0.00 0.00 60 1011.6
20260505050349 18 40 1.6 6.4 0.00 0.00 0.00 59 1011.4
20260505041358 18 321 3.2 6.4 0.00 0.00 0.00 60 1011.5
20260505040833 18 76 1.6 4.8 0.00 0.00 0.00 59 1011.5
20260505040335 18 355 1.6 4.8 0.00 0.00 0.00 60 1011.4
20260505035853 18 91 0.0 4.8 0.00 0.00 0.00 59 1011.4
20260505035331 18 105 0.0 3.2 0.00 0.00 0.00 59 1011.4
20260505034836 18 84 1.6 4.8 0.00 0.00 0.00 58 1011.3
20260505034349 18 88 1.6 4.8 0.00 0.00 0.00 58 1011.2
20260505033849 18 88 1.6 4.8 0.00 0.00 0.00 57 1011.2
20260505033336 19 44 1.6 6.4 0.00 0.00 0.00 57 1011.2
20260505032839 19 78 1.6 6.4 0.00 0.00 0.00 56 1011.3
20260505032335 19 5 1.6 6.4 0.00 0.00 0.00 56 1011.2
20260505031837 19 22 1.6 6.4 0.00 0.00 0.00 55 1011.2
20260505031335 19 40 1.6 6.4 0.00 0.00 0.00 55 1011.2
20260505030832 19 155 1.6 8.0 0.00 0.00 0.00 55 1011.1
20260505030335 19 109 1.6 6.4 0.00 0.00 0.00 54 1011.1
20260505025840 19 114 1.6 14.5 0.00 0.00 0.00 53 1011.1
20260505025335 19 47 1.6 6.4 0.00 0.00 0.00 53 1011.1
20260505024836 19 98 1.6 4.8 0.00 0.00 0.00 53 1011.0
20260505024336 18 69 1.6 8.0 0.00 0.00 0.00 53 1011.0
20260505023837 18 18 1.6 8.0 0.00 0.00 0.00 53 1010.9
20260505023355 18 34 1.6 3.2 0.00 0.00 0.00 52 1010.9
20260505022858 18 34 0.0 3.2 0.00 0.00 0.00 53 1010.9
20260505022334 17 34 0.0 1.6 0.00 0.00 0.00 53 1010.8
20260505021841 18 34 0.0 3.2 0.00 0.00 0.00 54 1010.6
20260505021339 17 34 0.0 3.2 0.00 0.00 0.00 53 1010.5
20260505020902 17 34 0.0 3.2 0.00 0.00 0.00 53 1010.5
20260505020350 17 205 0.0 3.2 0.00 0.00 0.00 52 1010.5
20260505015850 17 205 0.0 3.2 0.00 0.00 0.00 55 1010.6
20260505015335 17 227 0.0 0.0 0.00 0.00 0.00 54 1010.5
20260505014857 17 227 0.0 1.6 0.00 0.00 0.00 54 1010.5
20260505014358 17 227 0.0 1.6 0.00 0.00 0.00 54 1010.5
20260505013835 17 227 0.0 0.0 0.00 0.00 0.00 54 1010.5
20260505013345 17 227 0.0 0.0 0.00 0.00 0.00 54 1010.5
20260505012847 17 227 0.0 0.0 0.00 0.00 0.00 54 1010.4
20260505012327 17 227 0.0 0.0 0.00 0.00 0.00 54 1010.3
20260505011844 17 227 0.0 0.0 0.00 0.00 0.00 53 1010.3
20260505011402 17 227 0.0 0.0 0.00 0.00 0.00 53 1010.3
20260505010857 18 227 0.0 0.0 0.00 0.00 0.00 52 1010.4
20260505010404 18 227 0.0 0.0 0.00 0.00 0.00 52 1010.4
20260505005853 18 227 0.0 0.0 0.00 0.00 0.00 51 1010.3
20260505005340 18 227 0.0 0.0 0.00 0.00 0.00 50 1010.3
20260505004843 18 227 0.0 0.0 0.00 0.00 0.00 50 1010.3
20260505004343 19 227 0.0 0.0 0.00 0.00 0.00 48 1010.2
20260505003922 19 227 0.0 0.0 0.00 0.00 0.00 48 1010.3
20260505003359 20 227 0.0 0.0 0.00 0.00 0.00 47 1010.1
20260505002831 20 227 0.0 0.0 0.00 0.00 0.00 46 1010.1
20260505002332 20 227 0.0 0.0 0.00 0.00 0.00 44 1010.1
20260505001835 20 227 0.0 1.6 0.00 0.00 0.00 43 1009.9
20260505001342 21 227 0.0 1.6 0.00 0.00 0.00 42 1009.9
20260505000834 21 65 0.0 0.0 0.00 0.00 0.00 41 1009.8
20260505000334 21 66 0.0 0.0 0.00 0.00 0.00 41 1009.7
20260504235848 22 66 0.0 0.0 0.00 0.00 0.00 41 1009.7
20260504235350 22 66 0.0 0.0 0.00 0.00 0.00 39 1009.7
20260504234845 22 65 0.0 1.6 0.00 0.00 0.00 38 1009.7
20260504234402 22 66 0.0 1.6 0.00 0.00 0.00 37 1009.7
20260504233858 23 66 0.0 3.2 0.00 0.00 0.00 36 1009.7
20260504233342 23 66 0.0 3.2 0.00 0.00 0.00 36 1009.6
20260504232838 23 65 0.0 3.2 0.00 0.00 0.00 35 1009.6
20260504232333 23 65 0.0 1.6 0.00 0.00 0.00 35 1009.5
20260504231841 23 66 0.0 3.2 0.00 0.00 0.00 35 1009.5
20260504231340 23 66 0.0 3.2 0.00 0.00 0.00 34 1009.4
20260504230842 23 65 0.0 3.2 0.00 0.00 0.00 34 1009.4
20260504230347 23 60 0.0 3.2 0.00 0.00 0.00 34 1009.4
20260504225840 23 60 0.0 3.2 0.00 0.00 0.00 34 1009.4
20260504225403 24 71 0.0 3.2 0.00 0.00 0.00 32 1009.4
20260504224904 24 71 1.6 4.8 0.00 0.00 0.00 33 1009.4
20260504224341 24 71 0.0 4.8 0.00 0.00 0.00 32 1009.4
20260504223846 25 60 0.0 3.2 0.00 0.00 0.00 33 1009.4
20260504223407 25 63 0.0 3.2 0.00 0.00 0.00 31 1009.4
20260504222902 25 51 1.6 8.0 0.00 0.00 0.00 32 1009.4
20260504222353 25 63 1.6 8.0 0.00 0.00 0.00 30 1009.4
20260504221855 25 316 1.6 6.4 0.00 0.00 0.00 30 1009.4
20260504221346 25 150 1.6 6.4 0.00 0.00 0.00 29 1009.4
20260504220828 25 326 3.2 4.8 0.00 0.00 0.00 29 1009.4
20260504220341 25 58 0.0 8.0 0.00 0.00 0.00 30 1009.4
20260504215851 25 177 3.2 8.0 0.00 0.00 0.00 28 1009.4
20260504215347 25 231 1.6 4.8 0.00 0.00 0.00 28 1009.4
20260504214846 26 360 1.6 4.8 0.00 0.00 0.00 28 1009.3
20260504214330 26 87 1.6 6.4 0.00 0.00 0.00 28 1009.3
20260504213853 26 158 1.6 6.4 0.00 0.00 0.00 29 1009.5
20260504213335 26 59 0.0 8.0 0.00 0.00 0.00 28 1009.5
20260504212856 26 91 1.6 8.0 0.00 0.00 0.00 27 1009.5
20260504212337 26 79 1.6 8.0 0.00 0.00 0.00 28 1009.6
20260504211835 26 81 1.6 8.0 0.00 0.00 0.00 28 1009.5
20260504211334 26 324 3.2 8.0 0.00 0.00 0.00 28 1009.4
20260504210836 26 46 1.6 6.4 0.00 0.00 0.00 27 1009.4
20260504210342 27 107 1.6 9.7 0.00 0.00 0.00 27 1009.5
20260504205839 27 52 1.6 4.8 0.00 0.00 0.00 27 1009.6
20260504205350 27 67 1.6 8.0 0.00 0.00 0.00 27 1009.4
20260504204857 27 55 1.6 8.0 0.00 0.00 0.00 25 1009.5
20260504204353 27 327 1.6 6.4 0.00 0.00 0.00 27 1009.6
20260504203909 28 137 1.6 8.0 0.00 0.00 0.00 26 1009.5
20260504203332 28 91 1.6 8.0 0.00 0.00 0.00 26 1009.4
20260504202848 28 314 1.6 3.2 0.00 0.00 0.00 25 1009.5
20260504202334 28 85 1.6 3.2 0.00 0.00 0.00 26 1009.5
20260504201838 28 107 0.0 6.4 0.00 0.00 0.00 25 1009.5
20260504201340 28 106 1.6 6.4 0.00 0.00 0.00 25 1009.7
20260504200831 27 52 1.6 4.8 0.00 0.00 0.00 25 1009.7
20260504200336 27 57 0.0 4.8 0.00 0.00 0.00 24 1009.8
20260504195910 28 347 1.6 4.8 0.00 0.00 0.00 24 1009.9
20260504195408 28 209 1.6 4.8 0.00 0.00 0.00 24 1009.8
20260504194842 28 60 0.0 3.2 0.00 0.00 0.00 25 1009.9
20260504194357 28 72 0.0 3.2 0.00 0.00 0.00 25 1010.1
20260504193851 27 318 0.0 3.2 0.00 0.00 0.00 25 1010.1
20260504193335 27 330 0.0 3.2 0.00 0.00 0.00 26 1010.1
20260504192839 27 126 0.0 6.4 0.00 0.00 0.00 24 1010.3
20260504192332 27 355 0.0 3.2 0.00 0.00 0.00 27 1010.4
20260504191848 26 325 1.6 4.8 0.00 0.00 0.00 27 1010.4
20260504191340 26 41 1.6 4.8 0.00 0.00 0.00 26 1010.5
20260504190840 26 119 0.0 6.4 0.00 0.00 0.00 26 1010.6
20260504190341 26 53 0.0 6.4 0.00 0.00 0.00 25 1010.9
20260504185854 26 67 0.0 3.2 0.00 0.00 0.00 24 1010.9
20260504185401 26 67 1.6 4.8 0.00 0.00 0.00 25 1010.9
20260504184837 25 118 1.6 4.8 0.00 0.00 0.00 27 1011.2
20260504184403 25 265 0.0 4.8 0.00 0.00 0.00 26 1011.1
20260504183844 25 254 1.6 9.7 0.00 0.00 0.00 24 1011.1
20260504183344 26 346 1.6 9.7 0.00 0.00 0.00 24 1011.1
20260504182835 26 52 1.6 6.4 0.00 0.00 0.00 26 1011.1
20260504182400 26 323 1.6 6.4 0.00 0.00 0.00 26 1011.2
20260504181850 26 40 1.6 4.8 0.00 0.00 0.00 29 1011.2
20260504181347 25 5 3.2 4.8 0.00 0.00 0.00 28 1011.2
20260504180856 25 266 1.6 4.8 0.00 0.00 0.00 28 1011.3
20260504180358 25 249 1.6 4.8 0.00 0.00 0.00 28 1011.4
20260504175836 25 56 0.0 4.8 0.00 0.00 0.00 28 1011.4
20260504175334 25 61 1.6 6.4 0.00 0.00 0.00 29 1011.4
20260504174858 25 46 1.6 6.4 0.00 0.00 0.00 27 1011.4
20260504174327 25 277 1.6 4.8 0.00 0.00 0.00 26 1011.6
20260504173836 25 46 1.6 4.8 0.00 0.00 0.00 27 1011.7
20260504173336 25 59 0.0 12.9 0.00 0.00 0.00 26 1011.6
20260504172902 25 187 1.6 12.9 0.00 0.00 0.00 25 1011.7
20260504172356 26 18 3.2 6.4 0.00 0.00 0.00 26 1011.8
20260504171900 25 140 1.6 4.8 0.00 0.00 0.00 26 1011.8
20260504171339 25 323 1.6 4.8 0.00 0.00 0.00 26 1011.9
20260504170858 25 30 1.6 4.8 0.00 0.00 0.00 28 1012.0
20260504170334 25 297 1.6 4.8 0.00 0.00 0.00 26 1012.1
20260504160336 23 19 0.0 3.2 0.00 0.00 0.00 30 1012.8
20260504150836 22 48 0.0 4.8 0.00 0.00 0.00 38 1013.3
20260504150332 22 23 1.6 4.8 0.00 0.00 0.00 38 1013.3
20260504140829 19 38 0.0 4.8 0.00 0.00 0.00 47 1013.4
20260504140416 18 355 1.6 4.8 0.00 0.00 0.00 47 1013.5
20260504130344 16 290 1.6 6.4 0.00 0.00 0.00 54 1014.0